Cedar Springs

*Note: All times are displayed in the local standard time of the station location.
**Rain - Equipment is designed to accurately record liquid precipitation; under conditions when precipitation is not in liquid form, the data displayed may not properly reflect rainfall values.

Date Max Temp
(°C)
Min Temp
(°C)
Avg Temp
(°C)
Rain (mm) Avg RH (%) Solar Rad (kJ/m2)
Sat, Dec 16, 2017 0.4 -5.4 -2.1 0.0 97.7 1602.3
Fri, Dec 15, 2017 -2.3 -13.2 -4.8 0.0 93.5 1924.8
Thu, Dec 14, 2017 -6.3 -15.6 -10.6 0.2 100.0 5134.3
Wed, Dec 13, 2017 -3.1 -13.3 -7.1 0.0 90.3 1902.4
Tue, Dec 12, 2017 0.0 -11.7 -7.0 0.0 94.0 2246.1
Mon, Dec 11, 2017 1.1 -5.7 -2.2 0.0 95.3 1398.8
Sun, Dec 10, 2017 -1.8 -6.3 -2.8 0.0 94.6 1715.5
DateTime Avg Temp (°C) Rain (mm) RH (%) Solar Rad (kJ/m2)
Sun, Dec 17, 2017 17:00 1.9 1.2 100.0 40.6
Sun, Dec 17, 2017 16:00 1.9 1.2 100.0 133.5
Sun, Dec 17, 2017 15:00 1.7 1.2 100.0 220.1
Sun, Dec 17, 2017 14:00 1.8 0.8 100.0 313.5
Sun, Dec 17, 2017 13:00 1.6 0.0 100.0 265.2
Sun, Dec 17, 2017 12:00 1.2 0.2 100.0 190.5
Sun, Dec 17, 2017 11:00 0.8 0.0 100.0 191.7
Sun, Dec 17, 2017 10:00 0.2 0.0 100.0 161.9
Sun, Dec 17, 2017 09:00 -0.3 0.0 100.0 58.4
Sun, Dec 17, 2017 08:00 -0.5 0.0 100.0 1.3
Sun, Dec 17, 2017 07:00 -1.3 0.0 100.0 0.0
Sun, Dec 17, 2017 06:00 -1.7 0.0 99.8 0.0
Sun, Dec 17, 2017 05:00 -3.3 0.0 99.8 0.0
Sun, Dec 17, 2017 04:00 -5.7 0.0 100.0 0.0
Sun, Dec 17, 2017 03:00 -5.8 0.0 100.0 0.0
Sun, Dec 17, 2017 02:00 -4.8 0.0 100.0 0.0
Sun, Dec 17, 2017 01:00 -5.5 0.0 100.0 0.0
Sun, Dec 17, 2017 00:00 -5.1 0.0 99.8 0.0
Sat, Dec 16, 2017 23:00 -3.2 0.0 99.0 0.0
Sat, Dec 16, 2017 22:00 -2.3 0.0 99.0 0.0
Sat, Dec 16, 2017 21:00 -2.6 0.0 99.0 0.0
Sat, Dec 16, 2017 20:00 -2.6 0.0 99.0 0.0
Sat, Dec 16, 2017 19:00 -2.6 0.0 99.0 0.0
Sat, Dec 16, 2017 18:00 -2.7 0.0 99.0 0.3
Sat, Dec 16, 2017 17:00 -2.6 0.0 99.8 42.5
Sat, Dec 16, 2017 16:00 -2.6 0.0 100.0 141.3
Sat, Dec 16, 2017 15:00 -2.4 0.0 100.0 261.1
Sat, Dec 16, 2017 14:00 -2.6 0.0 100.0 315.4
Sat, Dec 16, 2017 13:00 -2.6 0.0 99.5 324.7
Sat, Dec 16, 2017 12:00 -2.7 0.0 99.0 248.4
Sat, Dec 16, 2017 11:00 -0.8 0.0 98.3 164.0
Sat, Dec 16, 2017 10:00 0.2 0.0 98.0 81.9
Sat, Dec 16, 2017 09:00 0.2 0.0 98.5 20.9
Sat, Dec 16, 2017 08:00 -0.2 0.0 98.3 1.8
Sat, Dec 16, 2017 07:00 -0.7 0.0 98.0 0.0
Sat, Dec 16, 2017 06:00 -1.1 0.0 97.0 0.0
Sat, Dec 16, 2017 05:00 -1.4 0.0 95.5 0.0
Sat, Dec 16, 2017 04:00 -1.7 0.0 94.3 0.0
Sat, Dec 16, 2017 03:00 -3.3 0.0 93.5 0.0
Sat, Dec 16, 2017 02:00 -3.4 0.0 91.5 0.0
Sat, Dec 16, 2017 01:00 -3.0 0.0 89.3 0.0
Sat, Dec 16, 2017 00:00 -2.8 0.0 88.3 0.0
Fri, Dec 15, 2017 23:00 -3.1 0.0 89.0 0.0
Fri, Dec 15, 2017 22:00 -3.4 0.0 90.5 0.0
Fri, Dec 15, 2017 21:00 -3.5 0.0 92.5 0.0
Fri, Dec 15, 2017 20:00 -3.6 0.0 93.8 0.0
Fri, Dec 15, 2017 19:00 -3.5 0.0 94.3 0.0
Fri, Dec 15, 2017 18:00 -3.7 0.0 94.5 0.3


asterix Register now to access more data! asterix